Hourly Data Report for September 09, 2017

All times are specified in Local Standard Time (LST). Add 1 hour to adjust for Daylight Saving Time where and when it is observed.

SANDY LAKE A
ONTARIO

53°03'51.000" N
93°20'40.000" W
289.90 m
6017401
71587
ZSJ

Download Data

Hourly Data (September 2017)
Hourly Data Report for September 9, 2017
Temp Definition
°C
Dew Point Temp Definition
°C
Rel Hum Definition
%
Wind Dir Definition
10's deg

Wind Spd Definition
km/h
Visibility Definition
km
Stn Press Definition
kPa
Hmdx Definition


Wind Chill Definition


Weather Definition


TIME
00:00 Legend Double Dagger 13.5 7.9 69 LegendMM LegendMM 16.1 98.61     LegendNANA
01:00 Legend Double Dagger 13.2 7.0 66 LegendMM LegendMM 16.1 98.64     LegendNANA
02:00 Legend Double Dagger 12.9 6.8 66 LegendMM LegendMM 16.1 98.66     LegendNANA
03:00 Legend Double Dagger 12.5 7.2 70 LegendMM LegendMM 16.1 98.67     LegendNANA
04:00 Legend Double Dagger 12.3 7.0 70 LegendMM LegendMM 16.1 98.66     LegendNANA
05:00 Legend Double Dagger 12.0 6.9 71 LegendMM LegendMM 16.1 98.67     LegendNANA
06:00 Legend Double Dagger 12.1 7.0 71 LegendMM LegendMM 16.1 98.68     LegendNANA
07:00 Legend Double Dagger 12.8 7.5 70 LegendMM LegendMM 16.1 98.71     LegendNANA
08:00 Legend Double Dagger 14.2 7.9 65 LegendMM LegendMM 16.1 98.70     LegendNANA
09:00 Legend Double Dagger 15.8 8.4 61 LegendMM LegendMM 16.1 98.68     LegendNANA
10:00 Legend Double Dagger 17.4 8.7 56 LegendMM LegendMM 16.1 98.66     LegendNANA
11:00 Legend Double Dagger 18.8 8.9 52 LegendMM LegendMM 16.1 98.62     LegendNANA
12:00 Legend Double Dagger 20.1 7.9 45 LegendMM LegendMM 16.1 98.57     LegendNANA
13:00 Legend Double Dagger 21.1 7.5 41 LegendMM LegendMM 16.1 98.53     LegendNANA
14:00 Legend Double Dagger 21.7 7.9 41 LegendMM LegendMM 16.1 98.47     LegendNANA
15:00 Legend Double Dagger 22.1 7.9 40 LegendMM LegendMM 16.1 98.42     LegendNANA
16:00 Legend Double Dagger 22.6 7.0 36 LegendMM LegendMM 16.1 98.38     LegendNANA
17:00 Legend Double Dagger 22.3 7.5 38 LegendMM LegendMM 16.1 98.34     LegendNANA
18:00 Legend Double Dagger 20.5 8.4 45 LegendMM LegendMM 16.1 98.33     LegendNANA
19:00 Legend Double Dagger 19.3 7.8 47 LegendMM LegendMM 16.1 98.32     LegendNANA
20:00 Legend Double Dagger 18.4 8.3 51 LegendMM LegendMM 16.1 98.32     LegendNANA
21:00 Legend Double Dagger 17.6 8.0 53 LegendMM LegendMM 16.1 98.30     LegendNANA
22:00 Legend Double Dagger 16.6 8.9 60 LegendMM LegendMM 16.1 98.29     LegendNANA
23:00 Legend Double Dagger 16.1 8.9 62 LegendMM LegendMM 16.1 98.29     LegendNANA

Notes on Data Quality.

Legend

  • E = Estimated
  • M = Missing
  • NA = Not Available
  • ‡ = Partner data that is not subject to review by the National Climate Archives
Date modified: